Regional Weather Roundup
Issued by NWS

Home | Current Version | Previous Version | Text Only | Print | Product List | Glossary Off
Versions: 1 2 3 4 5 6 7 8 9 10 11 12 13 14 15 16 17 18 19 20 21 22 23 24 25 26 27 28 29 30 31 32 33 34 35 36 37 38 39 40 41 42 43 44 45 46 47 48 49 50

401
ASUS44 KJAN 201703
RWRMS

MISSISSIPPI HOURLY WEATHER ROUNDUP
NATIONAL WEATHER SERVICE JACKSON MS
1200 PM CDT MON APR 20 2015

NOTE: "FAIR: INDICATES FEW OR NO CLOUDS BELOW 12,000 FEET WITH NO
SIGNIFICANT WEATHER AND/OR OBSTRUCTIONS TO VISIBILITY.

MSZ001>002-007>008-010>013-018>021-025>028-034>036-201800-
NORTHWEST MISSISSIPPI

CITY           SKY/WX    TMP DP  RH WIND       PRES   REMARKS
CLARKSDALE     FAIR      63  48  59 W16       29.89R
CLEVELAND      FAIR      64  48  57 NW12G18   29.89S
GREENWOOD      CLOUDY    62  48  60 W9G17     29.89R
GREENVILLE     MOSUNNY   65  45  48 NW17      29.90R
OLIVE BRANCH   PTSUNNY   61  46  59 NW14G23   29.84R
OXFORD         CLOUDY    59  46  63 NW14      29.86S
TUNICA         MOSUNNY   61  45  55 NW14      29.87R
$$

MSZ003>006-009-014>017-022>024-029>033-037>039-201800-
NORTHEAST MISSISSIPPI

CITY           SKY/WX    TMP DP  RH WIND       PRES   REMARKS
COLUMBUS AFB   PTSUNNY   64  52  63 W13G20    29.85S
CORINTH        PTSUNNY   61  48  63 W12G18    29.80S
GOLDN TRIANGLE PTSUNNY   63  52  67 W6        29.85R
STARKVILLE     CLOUDY    63  52  67 W9        29.87R
TUPELO         CLOUDY    63  50  62 NW10G16   29.83R
$$

MSZ040-058-201800-
CENTRAL MISSISSIPPI

CITY           SKY/WX    TMP DP  RH WIND       PRES   REMARKS
JACKSON INTL   PTSUNNY   66  50  56 W15G21    29.90R
JACKSON HAWKNS PTSUNNY   66  51  58 W9        29.91R
MERIDIAN KEY   PTSUNNY   69  51  52 W13       29.85S
MERIDIAN NAS   MOSUNNY   72  51  47 W13G21    29.85S
RAYMOND        FAIR      66  61  82 W10       29.91R
VICKSBURG      SUNNY     66  49  54 NW9G18    29.92S
$$

MSZ059>079-201800-
SOUTH MISSISSIPPI

CITY           SKY/WX    TMP DP  RH WIND       PRES   REMARKS
BROOKHAVEN     PTSUNNY   68  57  68 W10G16    29.92F
HATTIESBURG    PTSUNNY   75  58  55 W9G18     29.87F
MCCOMB         PTSUNNY   69  55  60 VRB7      29.91S
NATCHEZ        MOSUNNY   66  48  52 NW12G17   29.94S
PINE BELT      MOSUNNY   73  54  49 W13G18    29.89R
$$

MSZ080>082-201800-
COASTAL MISSISSIPPI

CITY           SKY/WX    TMP DP  RH WIND       PRES   REMARKS
BILOXI         NOT AVBL
PASCAGOULA     PTSUNNY   79  57  46 W8        29.85F
GULFPORT       MOSUNNY   78  56  46 W12       29.86S
$$



USA.gov is the U.S. government's official web portal to all federal, state and local government web resources and services.